User: anonymous   Login
Location: *
(35.8942°N, 23.3025°E)
Time: 14:21:27
(UTC+00:00)
Language:

EO-88 - Orbit

View from above orbital plane
View from above orbital plane
View from above satellite
View from above satellite

Ground track
Ground track

The orbit data is extracted from the following two-line orbital elements,

1 42017U 17008BX  23085.76671020  .00091723  00000-0  13023-2 0  9990
2 42017  97.2224 154.9131 0002368 279.0636  81.0351 15.56104893340566
Epoch (UTC): 26 March 2023 18:24:03
Eccentricity: 0.0002368
inclination: 97.2224°
perigee height: 397 km
apogee height: 400 km
right ascension of ascending node: 154.9131°
argument of perigee: 279.0636°
revolutions per day: 15.56104893
mean anomaly at epoch: 81.0351°
orbit number at epoch: 34056

The dashed part of the orbit path shows where the satellite is in the earth's shadow,  

DLR